This is the latest recevied weather packets stored in our database for station/object IW7DVM-13. If no packets are shown the sender has not sent any weather packets the latest 10 day(s).
| Time | Temp. | Humidity | Pressure | Rain* | Wind** | Luminosity | Snow |
|---|---|---|---|---|---|---|---|
| 1787500803 | 34.44° C | 44% | 1009 hPa | 0 mm | - | - | - |
| 1787500503 | 33.89° C | 44% | 1008.9 hPa | 0 mm | - | - | - |
| 1787500203 | 33.89° C | 44% | 1008.8 hPa | 0 mm | - | - | - |
| 1787499903 | 33.89° C | 46% | 1009.1 hPa | 0 mm | - | - | - |
| 1787499603 | 33.89° C | 47% | 1009.1 hPa | 0 mm | - | - | - |
| 1787499303 | 33.89° C | 47% | 1009 hPa | 0 mm | - | - | - |
| 1787499004 | 33.33° C | 47% | 1009.1 hPa | 0 mm | - | - | - |
| 1787498703 | 33.89° C | 50% | 1009 hPa | 0 mm | - | - | - |
| 1787498403 | 33.33° C | 49% | 1009.1 hPa | 0 mm | - | - | - |
| 1787498103 | 33.89° C | 48% | 1009 hPa | 0 mm | - | - | - |
| 1787497803 | 33.33° C | 47% | 1008.9 hPa | 0 mm | - | - | - |
| 1787497503 | 33.89° C | 46% | 1009 hPa | 0 mm | - | - | - |
| 1787497203 | 33.33° C | 49% | 1008.9 hPa | 0 mm | - | - | - |
| 1787496903 | 33.33° C | 49% | 1009.1 hPa | 0 mm | - | - | - |
| 1787496603 | 33.33° C | 51% | 1009 hPa | 0 mm | - | - | - |
| 1787496303 | 33.33° C | 53% | 1008.9 hPa | 0 mm | - | - | - |
| 1787496003 | 33.33° C | 51% | 1009 hPa | 0 mm | - | - | - |
| 1787495703 | 33.89° C | 52% | 1009 hPa | 0 mm | - | - | - |
| 1787495403 | 33.33° C | 53% | 1009 hPa | 0 mm | - | - | - |
| 1787495103 | 33.33° C | 53% | 1008.9 hPa | 0 mm | - | - | - |
| 1787494803 | 33.33° C | 53% | 1008.9 hPa | 0 mm | - | - | - |
| 1787494503 | 33.33° C | 52% | 1008.9 hPa | 0 mm | - | - | - |
| 1787494203 | 33.33° C | 53% | 1008.8 hPa | 0 mm | - | - | - |
| 1787493903 | 33.33° C | 53% | 1008.9 hPa | 0 mm | - | - | - |
| 1787493605 | 33.89° C | 54% | 1008.7 hPa | 0 mm | - | - | - |
* Rain latest hour (hover to see other rain measurements)
** Current wind speed in m/s (hover to see current wind gust speed)